CAPE
0 0 0 0 0 0 0 0 0 0 0 0 0 0 0 28 135 213 209 242 294 294 295 276 199 53 36 12 2 9 38 50 72 341 8 0 10 18 0 0 0 0 0
0 0 0 0 0 0 0 0 0 0 0 0 0 0 0 7 18 105 230 442 429 411 450 425 386 319 88 62 55 63 72 74 144 197 74 13 19 0 0 2 0 1 0
0 0 0 0 0 0 0 0 0 0 0 0 0 0 0 0 6 69 259 437 496 574 621 678 663 669 431 143 92 128 511 403 236 149 72 2 2 1 0 0 0 1 2
0 0 0 0 0 0 0 0 0 0 0 0 0 0 0 0 0 0 2 49 130 262 402 670 841 1152 1117 830 773 840 576 201 47 55 23 3 1 2 0 0 1 4 2
0 0 0 0 0 0 0 0 0 0 0 0 0 0 0 0 0 0 0 4 3 14 97 287 704 1015 1333 1508 1627 1499 542 452 114 41 8 3 2 1 1 0 0 2 2
0 0 0 0 0 0 0 0 0 0 0 0 0 0 0 0 0 0 0 0 0 4 12 10 99 264 593 673 362 248 637 399 198 66 34 19 0 1 0 0 0 3 0
0 0 0 0 0 0 0 0 0 0 0 0 0 0 0 0 0 0 0 0 0 0 0 0 36 172 266 758 792 49 1 3 155 76 63 69 10 0 0 0 1 0 0
0 0 0 0 0 0 0 0 0 0 0 0 0 0 0 0 0 0 0 0 0 0 0 0 2 38 210 524 986 492 108 19 1 21 115 67 86 0 0 0 0 1 2
0 0 0 0 0 0 0 0 0 0 0 0 0 0 0 0 0 0 0 0 0 0 0 11 53 204 345 377 467 539 175 1 3 1 0 0 0 0 0 1 2 2 6
0 0 0 0 0 0 0 0 0 0 0 0 0 0 0 0 0 0 0 0 0 0 8 85 55 18 159 1 177 464 96 8 1 2 2 0 0 1 0 0 1 1 0
0 0 0 0 0 0 0 0 0 0 0 0 0 0 0 0 0 0 0 0 0 2 9 74 284 247 8 2 1 297 240 0 0 0 0 2 0 1 1 0 0 3 0
0 0 0 0 0 0 0 0 0 0 0 0 0 0 0 0 0 0 0 1 0 6 9 34 289 43 2 2 2 27 0 0 0 0 1 2 1 2 2 0 0 0 0
1 1 0 0 0 0 0 0 0 0 0 0 0 0 0 0 0 0 0 0 1 0 2 1 12 2 2 0 0 1 0 0 0 1 7 2 1 0 2 2 1 0 0
10 5 5 9 1 0 0 0 0 0 0 0 0 0 0 0 0 0 0 0 1 0 0 0 0 0 0 0 1 1 0 0 0 2 1 1 2 2 3 2 1 2 34
3 5 12 14 4 0 0 0 0 0 0 0 0 0 0 0 0 0 0 24 22 1 1 3 3 2 0 3 2 1 1 2 2 0 1 2 3 2 2 1 0 1 31
20 22 16 15 4 0 1 2 0 0 0 0 0 0 3 0 0 0 0 0 0 1 3 3 1 1 1 1 1 1 2 1 2 1 2 2 1 0 1 0 0 25 1
15 20 18 4 3 5 2 0 0 0 0 0 0 0 0 0 1 2 1 0 0 1 3 38 8 1 14 13 1 1 0 2 3 1 18 12 0 8 3 3 10 2 0
35 19 35 28 31 32 27 30 32 22 4 1 0 0 0 0 0 0 0 1 0 1 1 76 6 2 6 1 0 0 1 1 2 4 23 0 1 0 9 21 6 11 6
45 33 26 24 23 41 38 39 25 13 5 0 1 0 0 1 1 0 0 2 3 1 3 6 1 0 2 0 1 0 0 0 2 2 0 0 0 0 0 0 0 0 0
36 18 41 40 31 25 23 23 17 13 4 0 0 1 1 1 2 1 2 2 7 12 1 1 1 2 3 0 0 1 0 2 2 2 0 4 12 4 0 0 0 0 0
32 8 2 32 41 12 15 20 3 1 6 0 0 0 0 1 2 1 2 5 15 1 0 1 1 1 0 0 0 0 0 0 4 3 3 2 4 0 0 0 0 0 0
14 17 6 16 14 22 31 6 8 20 29 10 2 0 1 1 0 0 6 2 0 0 0 0 1 0 0 0 0 4 0 2 1 4 10 2 0 2 2 0 0 1 1
4 10 12 7 8 5 14 3 12 14 10 13 2 1 1 4 15 6 0 0 0 0 1 0 0 0 0 0 0 1 0 0 4 16 2 2 0 0 0 0 0 0 0
7 6 3 2 8 2 2 9 17 4 2 0 1 0 0 0 0 2 0 0 1 2 0 0 0 0 0 0 0 0 0 0 0 0 0 0 0 0 0 0 0 0 0
1 1 2 2 1 1 1 1 2 1 0 0 1 0 0 1 0 0 0 4 2 0 0 0 0 0 0 0 0 0 0 0 0 0 0 0 0 0 0 0 0 0 0
1 1 1 1 1 0 0 0 0 0 0 0 0 0 0 0 0 0 3 1 0 0 0 0 0 0 0 0 0 0 0 0 0 0 0 0 0 0 0 0 0 0 0
CIN
-0 -0 -0 -0 -0 -0 -0 -0 -0 -0 -0 -0 -0 -0 -0 -361 -307 -262 -279 -253 -198 -237 -234 -197 -174 -204 -246 -181 -0 -197 -172 -119 -100 -127 -104 -54 -415 -359 -0 -0 -0 -0 -0
-0 -0 -0 -0 -0 -0 -0 -0 -0 -0 -0 -0 -0 -0 -0 -315 -320 -253 -192 -119 -108 -151 -139 -123 -104 -81 -214 -215 -189 -155 -141 -135 -98 -111 -243 -351 -360 -0 -0 -166 -0 -0 -0
-0 -0 -0 -0 -0 -0 -0 -0 -0 -0 -0 -0 -0 -0 -0 -0 -144 -232 -146 -92 -76 -63 -52 -25 -33 -1 -91 -126 -213 -120 -43 -70 -86 -105 -230 -0 -0 -0 -0 -0 -0 -0 -0
-0 -0 -0 -0 -0 -0 -0 -0 -0 -0 -0 -0 -0 -0 -0 -0 -0 -0 -154 -266 -195 -106 -67 -28 -10 -0 -2 -3 -63 -59 -108 -125 -204 -162 -264 -161 -0 -0 -0 -0 -0 -0 -0
-0 -0 -0 -0 -0 -0 -0 -0 -0 -0 -0 -0 -0 -0 -0 -0 -0 -0 -0 -77 -91 -379 -181 -69 -25 -9 -2 -14 -3 -31 -113 -168 -197 -170 -269 -0 -0 -0 -0 -0 -0 -0 -0
-0 -0 -0 -0 -0 -0 -0 -0 -0 -0 -0 -0 -0 -0 -0 -0 -0 -0 -0 -0 -0 -232 -347 -296 -165 -96 -52 -61 -194 -220 -109 -151 -175 -172 -221 -272 -0 -0 -0 -0 -0 -0 -0
-0 -0 -0 -0 -0 -0 -0 -0 -0 -0 -0 -0 -0 -0 -0 -0 -0 -0 -0 -0 -0 -0 -0 -0 -276 -154 -128 -39 -83 -433 -0 -92 -230 -222 -220 -271 -147 -0 -0 -0 -0 -0 -0
-0 -0 -0 -0 -0 -0 -0 -0 -0 -0 -0 -0 -0 -0 -0 -0 -0 -0 -0 -0 -0 -0 -0 -0 -386 -302 -165 -87 -39 -157 -330 -202 -0 -247 -186 -299 -240 -0 -0 -0 -0 -0 -0
-0 -0 -0 -0 -0 -0 -0 -0 -0 -0 -0 -0 -0 -0 -0 -0 -0 -0 -0 -0 -0 -0 -0 -393 -298 -165 -136 -143 -117 -111 -252 -0 -0 -0 -0 -0 -0 -0 -0 -0 -0 -0 -83
-0 -0 -0 -0 -0 -0 -0 -0 -0 -0 -0 -0 -0 -0 -0 -0 -0 -0 -0 -0 -0 -0 -328 -287 -292 -375 -239 -0 -247 -123 -250 -210 -0 -0 -0 -0 -0 -0 -0 -0 -0 -9 -0
-0 -0 -0 -0 -0 -0 -0 -0 -0 -0 -0 -0 -0 -0 -0 -0 -0 -0 -0 -0 -0 -16 -350 -261 -148 -136 -438 -0 -0 -180 -212 -0 -0 -0 -0 -0 -0 -0 -0 -0 -0 -99 -0
-0 -0 -0 -0 -0 -0 -0 -0 -0 -0 -0 -0 -0 -0 -0 -0 -0 -0 -0 -0 -0 -71 -82 -277 -130 -137 -0 -0 -0 -147 -0 -0 -0 -0 -0 -0 -0 -0 -0 -0 -0 -0 -0
-4 -2 -0 -0 -0 -0 -0 -0 -0 -0 -0 -0 -0 -0 -0 -0 -0 -0 -0 -0 -0 -0 -0 -0 -19 -0 -0 -0 -0 -0 -0 -0 -0 -0 -187 -0 -0 -0 -0 -0 -0 -0 -0
-1 -0 -2 -2 -7 -0 -0 -0 -0 -0 -0 -0 -0 -0 -0 -0 -0 -0 -0 -0 -0 -0 -0 -0 -0 -0 -0 -0 -0 -0 -0 -0 -0 -20 -0 -0 -0 -0 -0 -0 -0 -0 -4
-2 -1 -0 -1 -2 -0 -0 -0 -0 -0 -0 -0 -0 -0 -0 -0 -0 -0 -0 -208 -100 -0 -0 -0 -0 -0 -0 -0 -0 -0 -0 -0 -0 -0 -0 -0 -0 -0 -0 -0 -0 -0 -10
-0 -0 -0 -1 -3 -7 -19 -28 -0 -0 -0 -0 -0 -0 -9 -0 -0 -0 -0 -0 -0 -0 -0 -0 -0 -0 -0 -0 -0 -0 -0 -0 -0 -0 -0 -0 -0 -0 -0 -0 -0 -14 -8
-0 -0 -0 -1 -2 -6 -14 -0 -9 -0 -0 -0 -0 -0 -0 -1 -0 -0 -0 -0 -0 -0 -0 -215 -302 -0 -194 -324 -0 -0 -0 -0 -0 -0 -43 -63 -0 -105 -113 -66 -22 -25 -0
-0 -0 -3 -3 -5 -3 -2 -0 -0 -0 -0 -0 -0 -0 -0 -0 -0 -0 -0 -0 -0 -0 -0 -121 -73 -0 -154 -12 -0 -0 -0 -0 -0 -11 -49 -0 -15 -27 -54 -33 -61 -50 -52
-0 -1 -4 -8 -5 -2 -1 -0 -0 -0 -0 -0 -0 -0 -0 -0 -0 -0 -0 -0 -0 -0 -0 -67 -0 -0 -0 -0 -0 -0 -0 -0 -0 -0 -0 -0 -0 -0 -0 -0 -0 -39 -0
-0 -0 -1 -1 -1 -2 -1 -0 -0 -0 -1 -0 -0 -0 -0 -0 -0 -0 -0 -0 -0 -82 -0 -0 -0 -0 -0 -0 -0 -0 -0 -0 -0 -0 -33 -57 -51 -70 -0 -0 -0 -44 -3
-1 -6 -6 -0 -0 -0 -0 -0 -1 -0 -1 -0 -0 -0 -0 -0 -0 -0 -0 -0 -76 -0 -0 -0 -0 -0 -0 -0 -0 -0 -0 -3 -69 -75 -71 -64 -98 -0 -0 -1 -0 -0 -0
-0 -0 -0 -0 -0 -1 -0 -1 -0 -0 -0 -0 -0 -0 -0 -0 -0 -0 -0 -0 -0 -0 -0 -0 -0 -0 -0 -0 -0 -111 -1 -82 -75 -97 -76 -99 -21 -89 -64 -0 -0 -0 -0
-0 -0 -0 -0 -0 -0 -2 -0 -0 -0 -0 -1 -0 -0 -0 -0 -0 -0 -0 -0 -0 -0 -0 -0 -0 -0 -0 -0 -0 -109 -0 -16 -110 -94 -117 -122 -0 -0 -0 -43 -0 -0 -0
-0 -0 -0 -0 -0 -0 -0 -0 -13 -28 -28 -0 -0 -0 -0 -0 -0 -0 -0 -0 -0 -0 -0 -0 -0 -0 -0 -0 -0 -0 -0 -0 -15 -3 -0 -0 -0 -0 -0 -0 -0 -0 -0
-0 -0 -0 -0 -0 -0 -0 -0 -0 -0 -0 -0 -0 -0 -0 -0 -0 -0 -0 -0 -0 -0 -0 -0 -0 -0 -0 -0 -0 -0 -0 -0 -0 -0 -0 -0 -0 -0 -0 -0 -0 -0 -0
-0 -0 -0 -0 -0 -0 -0 -0 -0 -0 -0 -0 -0 -0 -0 -0 -0 -0 -0 -0 -0 -0 -0 -0 -0 -0 -0 -0 -0 -0 -0 -0 -0 -0 -0 -0 -0 -0 -0 -0 -0 -0 -0
Wind_Speed
8 7 8 7 6 6 6 6 6 4 5 5 4 4 4 4 4 3 3 3 6 5 5 6 9 7 7 6 6 6 7 8 10 6 3 3 1 2 3 3 3 1 1
3 4 9 7 7 7 6 7 6 6 5 5 4 4 3 4 4 4 4 4 6 5 6 6 9 7 10 9 7 9 9 10 8 14 3 2 1 2 2 2 2 2 1
2 1 3 3 5 7 7 7 7 6 6 5 5 4 4 4 4 4 4 5 5 6 7 7 10 8 10 8 7 8 10 8 9 7 3 1 1 1 2 1 2 1 1
6 7 7 7 8 7 6 6 6 7 7 6 6 5 5 4 5 5 4 4 5 5 7 7 10 10 11 10 8 12 7 8 6 5 3 3 2 2 1 2 3 2 2
5 6 10 10 7 7 7 6 5 5 5 6 5 3 3 3 3 4 4 5 5 7 7 8 9 12 14 14 7 7 6 5 5 6 3 4 3 3 4 3 2 1 3
3 5 5 4 6 7 6 7 7 6 5 5 5 4 3 2 5 8 6 5 6 7 9 9 10 11 12 17 17 17 12 9 8 7 6 5 5 4 4 4 3 3 2
5 4 3 4 5 6 6 5 6 6 5 5 5 5 5 4 7 9 9 5 7 7 9 8 9 7 9 11 13 14 12 11 8 12 10 7 6 8 7 5 5 3 3
8 7 4 5 6 6 6 6 6 4 6 5 6 6 6 5 9 10 12 6 6 9 10 9 9 11 11 11 9 8 8 8 7 7 8 7 5 8 9 6 6 5 3
13 12 8 8 8 8 10 9 8 6 6 7 5 7 5 5 10 11 10 7 7 9 10 8 8 11 13 12 10 10 7 5 3 2 3 6 12 12 9 7 5 5 2
17 14 11 12 13 14 13 11 7 6 7 5 5 6 8 7 11 13 12 6 7 7 9 7 11 13 12 8 10 8 7 5 7 6 4 4 6 6 11 5 7 7 4
16 14 14 14 16 16 15 12 9 8 6 6 6 6 7 7 8 14 14 6 7 8 8 5 6 12 11 11 13 10 8 10 5 5 5 6 4 6 5 4 6 6 5
19 18 17 16 13 13 16 12 11 8 7 7 7 7 5 6 11 12 14 12 10 7 10 5 6 11 8 9 9 8 12 11 7 5 5 5 5 5 5 5 6 5 1
19 19 16 15 16 14 13 13 10 9 10 9 8 9 7 6 7 13 15 13 11 6 10 7 9 7 8 5 4 8 11 8 7 5 6 5 4 5 7 6 6 5 2
22 22 16 16 12 10 9 10 10 9 10 9 8 8 7 7 8 8 7 7 11 8 13 5 6 7 6 6 6 7 5 6 7 6 5 4 5 5 6 4 4 4 3
17 16 17 14 16 16 14 11 10 10 12 9 9 9 8 8 10 12 11 8 6 8 4 3 4 5 7 5 4 5 4 6 6 5 6 6 6 6 5 4 4 3 3
17 15 12 11 8 8 7 5 6 9 15 14 14 12 9 13 13 11 12 9 8 11 4 4 6 8 7 6 6 5 5 7 6 6 7 7 7 7 6 4 2 4 4
12 13 10 11 10 10 8 9 9 5 7 9 11 10 8 11 10 11 7 6 9 9 5 7 7 8 8 7 6 7 9 8 9 7 7 8 6 6 7 5 5 5 4
12 14 9 9 9 8 9 9 8 8 9 8 11 12 13 15 11 4 3 5 3 5 7 7 7 8 8 7 8 10 7 7 7 6 7 6 7 7 6 7 5 5 5
7 8 6 6 7 7 7 7 8 7 6 4 4 5 11 11 9 8 10 8 8 7 8 6 7 8 7 8 8 8 9 8 7 7 6 6 6 5 5 5 4 6 6
9 11 7 8 7 6 6 6 6 6 7 8 8 9 5 6 6 7 7 8 9 8 6 7 7 7 7 8 8 8 7 8 7 8 7 7 7 6 6 6 5 7 5
3 5 6 4 6 7 7 7 7 8 7 9 8 8 8 8 8 9 9 10 9 8 7 7 7 8 8 8 9 9 9 8 8 8 7 7 6 6 5 5 6 5 6
5 6 7 7 6 6 8 8 9 8 7 7 7 5 5 5 7 8 8 7 7 7 6 7 7 8 8 9 9 8 8 8 6 7 8 6 6 7 6 6 6 6 6
5 6 6 7 7 7 8 9 8 9 8 7 6 4 6 7 7 7 7 6 7 7 7 7 8 8 8 7 7 8 8 7 8 8 8 7 7 6 6 7 6 7 8
11 12 12 9 11 11 9 10 10 9 8 6 4 1 1 5 6 8 7 6 7 7 7 7 8 11 8 7 5 5 6 6 7 8 11 9 8 8 8 9 7 9 10
8 8 7 6 7 8 9 8 8 8 7 7 7 5 3 6 6 7 8 7 7 7 8 8 6 10 10 11 9 9 9 10 10 9 9 11 12 11 10 10 11 11 13
9 9 7 7 8 9 9 8 8 8 7 7 8 7 6 7 6 9 7 8 8 8 10 7 8 12 11 9 12 12 12 13 12 12 11 11 11 9 10 13 16 11 12
Wind_Direction
176 171 172 178 171 160 180 184 190 188 195 209 194 186 188 198 192 186 214 222 233 243 235 231 246 235 235 221 210 214 217 214 242 266 250 236 223 156 123 115 120 112 77
336 276 185 169 165 177 198 205 186 205 196 196 187 195 213 214 188 199 220 219 227 249 252 231 249 238 239 230 212 228 224 218 219 246 227 229 210 241 126 137 101 75 55
203 223 277 168 178 205 206 203 194 200 200 187 180 204 217 227 240 241 226 237 235 242 258 261 268 242 250 236 207 235 234 227 216 240 231 192 171 202 122 120 131 152 75
201 180 214 210 201 210 216 214 199 186 176 171 177 190 200 211 217 224 221 242 257 260 258 257 261 253 252 243 214 228 204 190 192 204 182 216 182 170 127 177 208 202 216
224 218 208 214 197 184 184 194 186 211 176 156 147 182 202 185 224 233 253 259 259 267 265 263 260 256 250 252 245 236 216 191 180 193 189 211 174 178 193 159 198 168 220
164 243 245 200 181 180 183 188 179 183 176 156 165 177 208 233 231 240 225 237 244 252 270 273 267 258 258 252 251 245 211 201 195 194 190 216 181 195 153 156 165 185 187
294 258 250 203 210 187 175 184 200 194 177 186 186 186 213 227 247 263 256 248 251 249 246 258 271 268 257 258 247 246 248 244 201 196 189 194 168 187 146 165 193 176 157
260 260 232 224 212 201 191 197 205 201 204 197 208 212 216 223 230 248 263 263 250 254 251 251 259 271 270 262 258 249 230 206 207 213 207 175 177 155 168 185 169 134 105
247 250 240 229 230 212 205 206 207 196 203 200 192 202 206 229 235 251 264 264 254 254 253 248 253 266 267 256 248 254 234 181 111 176 85 152 143 142 152 142 147 150 116
253 249 240 231 231 233 236 217 190 197 215 213 220 203 208 220 221 238 251 249 250 254 258 249 238 250 266 238 224 221 193 176 198 141 118 91 103 155 177 174 151 150 112
247 243 239 234 232 231 230 228 215 200 203 205 221 211 214 216 231 236 247 248 242 248 251 258 257 251 246 227 210 184 192 143 163 129 131 111 142 166 179 140 153 140 142
244 242 237 236 233 229 223 219 216 198 206 225 223 237 230 228 229 243 250 214 239 242 252 246 255 253 227 213 215 183 145 133 133 126 132 149 169 160 158 146 148 123 142
237 234 234 238 235 225 216 207 201 186 201 211 214 226 234 227 238 234 245 227 215 228 252 245 283 226 160 156 215 182 159 128 123 150 170 179 168 149 135 119 100 105 140
229 229 225 222 225 214 199 193 193 188 196 206 207 221 228 233 233 240 231 223 219 216 248 249 216 184 187 148 139 203 132 120 162 169 168 145 129 154 144 132 118 146 165
233 232 224 222 222 224 229 219 206 200 188 192 209 214 212 228 235 226 220 208 203 224 169 161 178 178 178 176 164 157 114 135 167 152 156 151 152 154 138 139 112 153 167
215 212 204 208 197 191 187 189 213 185 189 201 199 197 216 225 228 219 213 220 221 184 183 199 197 198 184 178 162 150 158 176 168 163 156 156 157 154 148 128 139 170 152
207 188 198 205 211 208 209 214 219 216 206 216 217 210 227 249 233 221 210 233 238 189 222 204 191 190 193 175 170 168 184 173 162 160 157 159 145 152 140 163 163 156 141
189 197 190 183 181 183 183 189 193 199 206 219 218 216 209 223 231 234 270 175 233 245 213 210 178 178 183 173 168 178 158 133 159 156 157 145 154 154 157 165 166 149 129
161 176 173 179 184 180 175 180 196 200 203 198 192 204 215 212 203 192 190 225 232 213 211 183 171 162 167 167 160 160 153 156 158 154 150 148 142 136 126 139 123 131 125
177 165 174 165 157 154 164 182 197 210 223 229 227 226 172 142 185 200 200 207 219 206 173 166 163 144 162 148 143 144 135 140 147 149 149 146 149 150 140 140 147 148 140
139 169 171 168 165 178 189 201 205 213 214 220 218 217 187 195 202 200 197 200 197 168 156 159 148 147 146 132 139 142 141 147 146 135 138 144 144 141 134 141 138 123 127
184 165 181 195 195 200 191 194 204 204 216 209 230 217 170 217 194 186 187 175 156 145 137 139 144 143 139 143 142 137 139 139 132 136 143 142 134 129 131 127 123 125 128
222 192 200 201 206 210 197 206 207 212 201 198 205 186 189 218 177 158 134 123 119 125 126 136 139 132 136 133 137 140 138 146 151 143 133 126 118 124 128 123 116 113 107
212 214 217 228 224 215 217 202 201 172 171 159 155 168 139 110 108 112 100 106 128 109 125 136 132 136 126 119 109 98 114 127 124 127 123 119 116 120 118 111 98 100 100
54 63 69 66 74 82 95 112 113 118 124 137 141 110 99 92 96 90 83 100 107 110 99 96 98 112 116 117 111 114 113 103 110 109 109 110 110 108 110 110 114 108 110
45 51 52 55 66 77 83 93 100 104 111 116 112 105 105 86 95 99 110 108 101 90 87 81 86 94 94 95 114 113 109 106 105 103 112 109 105 103 106 109 111 110 112